CAPE
0 0 2 0 12 11 13 5 3 0 0 0 0 0 0 0 0 0 0 0 0 0 0 2 147 249 111 121 135 49 72 70 55 17 0 0 0 0 0 0 0 0 0 0
0 0 0 0 14 11 11 8 4 0 0 0 0 0 0 0 0 0 0 0 0 0 0 0 51 136 61 70 108 95 49 69 42 27 3 0 0 0 0 0 0 0 0 0
0 0 0 0 7 33 19 15 1 6 0 1 0 0 0 0 0 0 0 0 0 0 0 0 0 80 95 65 88 104 46 86 74 21 0 0 0 0 0 0 0 0 0 0
0 0 1 5 10 7 11 0 7 7 12 2 0 0 0 0 0 0 0 0 0 0 0 0 0 27 39 83 67 165 94 76 112 2 0 0 0 0 0 0 0 0 0 0
0 0 0 0 0 1 0 0 8 10 18 10 0 9 0 0 0 0 0 0 0 0 0 0 0 0 12 9 38 16 133 115 64 0 0 0 0 0 0 0 0 0 0 0
0 0 0 0 0 8 0 5 1 5 7 0 0 0 0 0 0 0 0 0 0 0 0 0 0 0 89 30 2 13 125 139 79 0 0 0 0 0 0 0 0 0 0 0
0 0 0 0 1 0 0 3 0 0 2 0 0 0 0 0 0 0 0 0 0 0 0 0 0 0 4 82 93 84 86 126 86 3 0 0 0 0 0 0 0 0 0 0
0 0 0 0 1 1 1 6 0 0 0 0 0 0 0 0 0 0 0 0 0 0 0 0 0 0 53 109 94 126 127 114 63 35 12 0 0 0 0 0 0 0 0 0
0 0 0 0 0 17 18 1 0 5 0 0 0 0 0 0 1 0 0 0 0 0 0 0 0 0 75 118 123 141 112 112 113 67 37 0 0 0 0 0 0 0 0 0
0 0 0 0 0 1 32 6 0 5 0 0 0 0 3 3 2 0 0 0 0 0 0 0 0 0 109 131 139 132 79 51 63 64 76 11 0 0 0 0 0 0 0 0
0 1 0 0 0 0 5 5 6 6 2 0 0 0 4 6 3 75 0 0 0 0 0 0 0 52 47 2 1 2 2 1 1 1 6 1 1 0 0 1 2 2 1 0
0 0 0 0 0 0 13 9 7 0 0 1 2 2 4 4 7 10 6 4 1 0 1 0 1 1 0 1 3 5 6 2 3 6 3 2 2 1 0 0 0 0 1 0
3 0 0 0 0 0 1 4 1 1 0 1 0 0 4 0 0 6 3 4 3 2 1 1 0 1 1 1 3 2 1 1 1 3 2 1 1 1 1 1 0 0 0 1
7 1 0 0 0 1 0 0 0 0 0 0 0 0 0 0 1 7 3 5 4 4 8 3 1 2 2 2 2 2 3 1 2 0 1 1 2 3 3 2 2 1 1 1
2 0 0 0 0 0 0 0 1 0 0 0 1 0 0 0 0 2 6 5 4 5 5 5 4 4 3 3 3 3 2 3 2 1 1 1 0 0 0 0 0 0 0 0
6 0 0 0 0 0 0 0 0 0 0 0 0 0 1 0 0 0 1 2 3 4 5 5 5 4 4 3 2 2 2 2 1 1 1 1 1 0 0 0 0 0 0 0
2 1 0 0 0 0 0 0 0 0 0 1 0 0 0 0 0 0 0 0 0 0 2 4 2 3 4 3 3 2 2 1 1 1 1 0 0 0 1 0 1 1 0 0
0 0 0 0 0 0 0 0 0 0 0 0 0 0 0 0 0 0 0 0 0 0 0 0 0 0 0 2 2 2 1 1 0 0 0 1 0 1 0 1 2 1 1 3
0 0 0 0 0 0 0 0 0 0 0 0 0 0 0 0 0 0 0 0 0 0 0 0 0 0 0 0 0 0 0 0 0 1 1 1 1 1 1 1 2 3 0 0
0 0 0 0 0 0 0 0 0 0 0 0 0 0 0 0 0 0 0 0 0 0 0 0 0 0 0 0 0 0 0 0 1 1 0 0 0 0 0 0 0 0 0 0
0 0 0 0 0 0 0 0 0 0 0 0 0 0 1 0 0 0 0 0 0 0 0 0 0 0 0 0 0 0 0 0 0 0 0 0 0 0 0 0 0 0 0 0
0 0 0 0 0 0 0 0 0 0 0 0 0 0 0 0 0 0 0 0 0 0 0 0 0 0 0 0 0 0 0 0 0 0 0 0 0 0 0 0 0 0 0 0
0 0 0 0 0 0 0 0 0 0 0 0 0 0 0 0 0 0 0 0 0 0 0 0 0 0 0 0 0 0 0 0 0 0 0 0 0 0 0 0 0 0 0 0
0 0 0 0 0 0 0 0 0 0 0 0 0 0 0 0 0 0 0 0 0 0 0 0 0 0 0 0 0 0 0 0 0 0 0 0 0 0 0 0 0 0 0 0
0 0 0 0 0 0 0 0 0 0 0 0 0 0 0 0 0 0 0 0 0 0 0 0 0 0 0 0 0 0 0 0 0 0 0 0 0 0 0 0 0 0 0 0
0 0 0 0 0 0 0 0 0 0 0 0 0 0 0 0 0 0 0 0 0 0 0 0 0 0 0 0 0 0 0 0 0 0 0 0 0 0 0 0 0 0 0 0
CIN
-0 -0 -0 -0 -5 -3 -1 -1 -0 -0 -0 -0 -0 -0 -0 -0 -0 -0 -0 -0 -0 -0 -0 -4 -41 -37 -22 -24 -22 -25 -54 -68 -66 -31 -0 -0 -0 -0 -0 -0 -0 -0 -0 -0
-0 -0 -0 -1 -0 -0 -1 -1 -2 -0 -0 -0 -0 -0 -0 -0 -0 -0 -0 -0 -0 -0 -0 -0 -27 -33 -16 -9 -7 -12 -24 -35 -53 -60 -124 -0 -0 -0 -0 -0 -0 -0 -0 -0
-0 -0 -0 -0 -1 -1 -3 -0 -0 -0 -0 -2 -0 -0 -0 -0 -0 -0 -0 -0 -0 -0 -0 -0 -0 -33 -53 -26 -1 -21 -15 -20 -28 -66 -0 -0 -0 -0 -0 -0 -0 -0 -0 -0
-0 -0 -4 -0 -0 -0 -0 -0 -0 -0 -0 -2 -3 -0 -0 -0 -0 -0 -0 -0 -0 -0 -0 -0 -0 -39 -86 -44 -17 -3 -27 -25 -14 -65 -0 -0 -0 -0 -0 -0 -0 -0 -0 -0
-0 -0 -0 -0 -0 -0 -0 -5 -0 -0 -0 -0 -0 -0 -0 -0 -0 -0 -0 -0 -0 -0 -0 -0 -0 -0 -91 -124 -109 -45 -4 -13 -10 -0 -0 -0 -0 -0 -0 -0 -0 -0 -0 -0
-0 -0 -0 -0 -0 -1 -0 -0 -0 -0 -0 -1 -0 -0 -0 -0 -0 -0 -0 -0 -0 -0 -0 -0 -0 -0 -41 -81 -27 -40 -0 -10 -18 -0 -0 -0 -0 -0 -0 -0 -0 -0 -0 -0
-0 -0 -0 -0 -0 -0 -0 -0 -0 -0 -0 -0 -0 -0 -0 -0 -0 -0 -0 -0 -0 -0 -0 -0 -0 -0 -36 -59 -48 -3 -8 -5 -29 -81 -0 -0 -0 -0 -0 -0 -0 -0 -0 -0
-0 -0 -0 -0 -0 -0 -0 -0 -0 -0 -0 -0 -0 -0 -0 -0 -0 -0 -0 -0 -0 -0 -0 -0 -0 -0 -62 -90 -97 -47 -24 -18 -45 -79 -109 -0 -0 -0 -0 -0 -0 -0 -0 -0
-0 -0 -0 -0 -0 -3 -0 -0 -0 -0 -0 -0 -0 -0 -0 -0 -0 -0 -0 -0 -0 -0 -0 -0 -0 -0 -77 -86 -122 -113 -76 -68 -62 -86 -85 -9 -0 -0 -0 -0 -0 -0 -0 -0
-0 -0 -0 -0 -0 -3 -5 -0 -0 -0 -0 -0 -0 -0 -0 -0 -0 -0 -0 -0 -0 -0 -0 -0 -0 -0 -104 -114 -145 -126 -120 -147 -139 -102 -58 -84 -0 -0 -0 -0 -0 -0 -0 -0
-0 -0 -0 -0 -0 -0 -1 -0 -0 -0 -0 -0 -0 -0 -0 -0 -0 -1 -0 -0 -0 -0 -0 -0 -0 -128 -44 -36 -0 -0 -0 -0 -0 -0 -21 -0 -0 -0 -0 -0 -0 -0 -0 -0
-0 -0 -0 -0 -0 -0 -0 -0 -0 -0 -0 -0 -0 -0 -0 -0 -0 -0 -0 -0 -0 -0 -0 -0 -0 -0 -0 -0 -0 -0 -0 -0 -0 -0 -0 -0 -0 -0 -0 -0 -0 -0 -0 -0
-0 -0 -0 -0 -0 -0 -0 -0 -0 -0 -0 -1 -0 -0 -0 -0 -0 -0 -0 -0 -0 -0 -0 -0 -0 -0 -0 -0 -0 -0 -0 -0 -0 -0 -0 -0 -0 -0 -0 -0 -0 -0 -0 -0
-0 -0 -0 -0 -0 -0 -0 -0 -0 -0 -0 -0 -1 -0 -0 -0 -0 -0 -0 -0 -0 -0 -0 -0 -0 -0 -0 -0 -0 -0 -0 -0 -0 -0 -0 -0 -0 -0 -0 -0 -0 -0 -0 -0
-0 -0 -0 -0 -0 -0 -0 -0 -0 -0 -0 -0 -0 -0 -0 -0 -0 -0 -0 -0 -0 -0 -0 -0 -0 -0 -0 -0 -0 -0 -0 -0 -0 -0 -0 -0 -0 -0 -0 -0 -0 -0 -0 -0
-0 -0 -0 -0 -0 -0 -0 -0 -0 -0 -0 -0 -0 -0 -1 -0 -0 -0 -0 -0 -0 -0 -0 -0 -0 -0 -0 -0 -0 -0 -0 -0 -0 -0 -0 -0 -0 -0 -0 -0 -0 -0 -0 -0
-0 -0 -0 -0 -0 -6 -0 -0 -0 -0 -0 -0 -0 -0 -0 -0 -0 -0 -0 -0 -0 -0 -0 -0 -0 -0 -0 -0 -0 -0 -0 -0 -0 -0 -0 -0 -0 -0 -0 -0 -0 -0 -0 -0
-0 -0 -0 -0 -0 -0 -0 -0 -0 -0 -0 -0 -0 -0 -0 -0 -0 -0 -0 -0 -0 -0 -0 -0 -0 -0 -0 -0 -0 -0 -0 -0 -0 -0 -0 -0 -0 -0 -0 -0 -0 -0 -0 -0
-0 -0 -0 -0 -0 -0 -0 -0 -0 -0 -0 -0 -0 -0 -0 -0 -0 -0 -0 -0 -0 -0 -0 -0 -0 -0 -0 -0 -0 -0 -0 -0 -0 -0 -0 -0 -0 -0 -0 -0 -0 -0 -0 -0
-0 -0 -0 -0 -0 -0 -0 -0 -0 -0 -0 -0 -0 -0 -0 -0 -0 -0 -0 -0 -0 -0 -0 -0 -0 -0 -0 -0 -0 -0 -0 -0 -0 -0 -0 -0 -0 -0 -0 -0 -0 -0 -0 -0
-0 -0 -0 -0 -0 -0 -0 -0 -0 -0 -0 -0 -0 -0 -0 -0 -0 -0 -0 -0 -0 -0 -0 -0 -0 -0 -0 -0 -0 -0 -0 -0 -0 -0 -0 -0 -0 -0 -0 -0 -0 -0 -0 -0
-0 -0 -0 -0 -0 -0 -0 -0 -0 -0 -0 -0 -0 -0 -0 -0 -0 -0 -0 -0 -0 -0 -0 -0 -0 -0 -0 -0 -0 -0 -0 -0 -0 -0 -0 -0 -0 -0 -0 -0 -0 -0 -0 -0
-0 -0 -0 -0 -0 -0 -0 -0 -0 -0 -0 -0 -0 -0 -0 -0 -0 -0 -0 -0 -0 -0 -0 -0 -0 -0 -0 -0 -0 -0 -0 -0 -0 -0 -0 -0 -0 -0 -0 -0 -0 -0 -0 -0
-0 -0 -0 -0 -0 -0 -0 -0 -0 -0 -0 -0 -0 -0 -0 -0 -0 -0 -0 -0 -0 -0 -0 -0 -0 -0 -0 -0 -0 -0 -0 -0 -0 -0 -0 -0 -0 -0 -0 -0 -0 -0 -0 -0
-0 -0 -0 -0 -0 -0 -0 -0 -0 -0 -0 -0 -0 -0 -0 -0 -0 -0 -0 -0 -0 -0 -0 -0 -0 -0 -0 -0 -0 -0 -0 -0 -0 -0 -0 -0 -0 -0 -0 -0 -0 -0 -0 -0
-0 -0 -0 -0 -0 -0 -0 -0 -0 -0 -0 -0 -0 -0 -0 -0 -0 -0 -0 -0 -0 -0 -0 -0 -0 -0 -0 -0 -0 -0 -0 -0 -0 -0 -0 -0 -0 -0 -0 -0 -0 -0 -0 -0
Wind_Speed
5 5 12 12 14 18 15 19 21 19 16 12 18 18 17 12 10 13 13 6 7 8 9 10 10 11 9 5 14 13 13 14 12 11 10 9 10 9 7 7 10 10 8 9
4 12 17 12 15 16 17 18 19 14 14 11 15 17 16 14 13 13 17 14 8 7 6 10 7 10 12 10 12 14 13 14 11 10 9 7 8 6 8 6 7 9 9 8
9 17 18 13 11 13 13 17 20 19 14 9 8 23 18 20 16 15 17 16 8 10 10 8 11 11 13 13 12 14 13 14 13 11 8 4 4 3 4 6 6 5 9 9
9 7 9 18 16 14 14 11 14 17 14 10 8 11 15 9 15 17 17 17 11 10 8 8 9 10 10 13 8 9 12 11 11 13 11 12 11 8 7 8 4 5 8 9
10 23 18 15 9 12 10 11 12 13 13 11 14 10 12 9 14 18 19 20 15 9 9 9 7 7 12 12 12 9 12 15 12 12 11 10 10 8 3 3 6 6 5 7
16 14 2 1 15 14 15 13 16 14 7 8 12 11 13 12 21 11 16 18 16 9 9 9 9 9 13 14 13 13 16 15 15 13 15 14 13 11 6 7 8 7 4 4
10 6 3 4 12 7 1 5 5 5 1 7 3 10 15 11 10 18 18 18 17 10 10 10 12 8 6 13 18 16 12 13 14 15 13 13 12 11 13 11 9 8 5 3
6 11 6 9 4 7 8 3 3 5 4 3 4 7 5 5 11 15 16 17 12 9 9 11 11 7 7 11 13 16 17 16 16 17 15 11 11 8 8 10 9 8 9 8
6 8 3 11 4 9 6 10 16 8 4 4 4 5 7 15 19 18 11 11 9 8 8 10 8 9 8 7 12 16 15 14 14 15 12 11 11 11 11 11 10 9 10 7
4 9 4 10 6 2 5 10 8 4 4 4 2 4 9 26 28 17 7 9 8 8 9 9 8 8 7 7 8 10 12 12 12 12 9 8 10 10 7 6 9 10 6 6
6 4 8 8 6 10 9 9 5 6 6 3 4 1 15 25 25 10 11 6 1 5 7 8 7 8 11 12 11 9 11 12 10 9 9 9 10 10 12 12 12 12 12 9
3 4 6 10 6 2 8 15 6 4 5 4 3 3 21 28 21 13 13 13 16 17 16 17 16 17 18 16 17 14 13 15 14 14 15 14 14 14 15 15 14 14 15 15
8 3 6 9 2 11 8 24 19 3 2 11 6 7 22 28 22 17 18 19 18 20 22 19 20 20 18 17 16 16 16 16 14 16 16 15 15 14 14 12 12 13 14 15
11 3 3 3 4 7 13 23 23 13 5 8 10 15 26 29 25 23 19 23 23 24 23 21 22 22 18 19 18 17 17 15 14 18 17 17 16 16 15 15 15 15 13 16
4 3 5 8 3 7 20 16 23 22 16 9 13 14 22 23 20 18 19 25 29 29 28 24 23 20 19 20 19 18 17 17 16 18 19 17 15 16 16 16 16 16 14 14
3 3 3 2 7 5 16 19 17 18 20 10 13 14 19 19 17 27 25 26 27 26 25 24 24 23 22 20 19 19 18 17 16 20 17 17 16 16 15 14 15 15 14 14
4 3 4 4 3 1 6 21 10 14 18 11 11 11 16 18 25 25 23 24 25 24 23 23 23 22 20 20 17 20 18 17 19 18 17 16 16 16 15 15 17 16 15 16
6 6 1 4 5 10 3 15 6 7 22 24 16 16 12 11 16 23 25 23 22 21 22 21 19 20 19 18 18 16 17 19 20 19 18 16 15 16 15 16 16 15 14 16
6 2 4 5 3 3 3 15 10 8 12 23 20 20 18 9 13 27 24 20 19 18 16 16 17 18 20 20 16 19 20 18 19 19 18 17 16 16 16 17 16 15 15 14
7 5 7 5 7 7 6 20 17 6 12 21 18 18 16 16 15 9 17 17 18 19 18 18 18 19 20 17 15 20 19 18 20 17 17 16 16 16 17 15 15 14 13 13
9 6 4 5 6 4 7 21 8 9 3 15 14 13 14 12 7 6 10 16 17 16 17 16 19 18 17 15 15 20 17 19 15 15 16 16 16 16 15 14 13 12 13 13
4 5 4 4 6 6 15 10 10 1 3 5 9 9 9 7 8 11 13 15 16 17 17 17 16 17 15 15 15 18 18 13 13 14 15 15 15 12 11 14 12 12 11 11
4 2 2 3 2 1 3 1 2 1 2 5 6 7 7 10 12 12 13 14 15 16 14 14 14 15 15 15 14 16 12 11 11 14 14 13 12 12 12 12 11 9 10 9
3 1 3 2 1 1 1 1 2 2 3 5 6 7 8 9 10 11 11 12 12 13 13 11 13 15 14 12 13 12 10 10 11 13 13 11 12 12 11 9 9 9 8 8
4 3 4 2 4 2 2 2 4 3 4 7 8 8 8 9 9 9 10 11 11 11 10 9 11 11 12 11 13 12 11 8 12 12 10 10 9 9 8 9 8 7 10 10
5 6 4 5 5 4 3 5 5 7 6 6 8 8 8 8 10 9 9 8 8 9 8 9 10 10 10 10 11 11 11 9 8 10 8 7 7 7 7 7 7 17 15 18
Wind_Direction
251 248 249 252 232 245 263 265 270 268 277 276 264 271 274 261 261 276 276 249 266 280 250 201 232 198 203 227 192 179 162 166 162 170 169 173 180 182 181 181 183 190 187 177
309 259 273 267 272 278 282 293 283 274 271 247 275 275 274 266 253 245 265 268 228 260 299 276 232 200 195 207 210 189 178 167 172 174 175 179 176 185 171 174 186 191 173 168
268 268 298 295 299 288 265 267 272 269 286 273 278 273 275 263 248 244 253 254 213 214 236 235 232 204 189 191 217 191 184 175 177 176 166 150 144 119 151 192 186 182 176 178
272 266 276 307 294 282 284 279 277 270 266 264 192 283 265 254 239 239 246 254 238 210 229 224 233 209 189 183 173 198 188 182 181 175 175 182 177 174 195 191 170 177 188 188
280 305 310 313 298 305 254 307 291 279 259 270 236 252 257 221 236 233 228 240 248 210 218 224 228 207 201 191 179 208 214 187 178 183 176 187 184 186 140 130 164 188 180 181
284 296 248 309 300 276 270 281 270 255 236 243 226 207 271 221 228 244 234 239 236 188 208 212 222 208 202 181 175 203 212 190 177 177 173 191 194 182 168 174 186 189 193 185
330 302 289 32 309 320 109 286 309 354 349 231 272 202 253 293 263 233 231 228 226 200 202 204 214 204 194 180 179 183 199 182 182 184 190 193 193 187 188 183 185 180 178 195
342 328 11 337 318 275 312 286 267 277 227 245 173 241 250 28 335 290 244 228 220 202 198 207 208 180 184 184 175 177 184 187 181 184 194 195 196 196 194 195 193 200 199 205
321 280 274 300 349 339 340 355 291 257 212 256 218 280 292 355 310 298 258 212 206 187 183 200 196 169 169 182 175 171 185 189 181 187 184 182 185 196 202 200 205 211 211 202
274 290 307 336 352 303 319 347 325 339 287 268 277 284 349 334 329 335 173 170 195 193 185 195 183 156 153 183 184 180 189 178 173 180 182 190 195 189 206 205 213 214 197 155
276 237 293 328 5 320 346 345 337 279 258 283 317 77 354 339 326 5 52 89 49 215 178 171 131 89 71 60 51 52 58 56 43 35 30 40 35 44 45 40 31 25 29 40
305 287 293 310 282 297 14 348 326 263 340 327 285 50 358 345 329 40 59 76 71 84 73 74 71 70 64 62 56 52 51 62 60 64 60 56 55 57 65 66 60 66 64 54
352 321 318 347 0 8 8 359 356 307 254 17 14 329 344 348 357 28 63 65 72 77 73 71 68 67 64 63 62 59 56 60 62 68 67 58 58 58 61 63 73 74 86 80
334 277 252 264 331 349 2 12 8 15 23 324 30 343 347 350 355 24 45 63 65 65 66 68 66 66 64 62 60 58 59 59 63 72 69 64 62 64 62 57 57 57 60 74
345 281 311 312 211 52 33 15 15 24 1 28 347 9 5 354 354 13 44 59 60 58 57 56 62 66 66 65 63 63 63 62 66 69 72 68 68 67 67 67 68 66 61 64
337 294 319 346 144 92 41 19 25 24 6 354 357 31 14 357 8 29 30 49 53 55 54 56 58 57 54 55 56 58 57 58 61 65 64 63 59 59 58 58 59 62 60 63
314 306 354 301 242 70 16 13 16 33 24 342 10 335 338 7 27 24 24 38 45 46 46 49 48 48 45 48 48 53 48 51 54 58 54 56 59 58 56 58 61 58 61 63
294 317 73 285 8 41 325 15 346 351 27 18 10 352 348 35 39 36 27 33 36 38 39 44 47 49 43 47 50 57 53 52 55 52 51 50 54 61 60 62 63 62 58 56
219 329 26 76 14 190 353 2 353 354 23 11 4 0 359 355 44 36 17 23 35 36 39 43 46 50 47 41 42 56 53 53 53 50 49 46 48 54 54 54 56 59 61 59
5 38 71 13 76 32 318 332 331 287 37 1 3 7 5 11 54 19 1 19 34 41 41 42 42 48 49 40 45 57 52 51 51 47 51 51 49 53 54 52 52 54 59 62
337 359 63 1 82 28 332 323 315 60 320 343 359 14 27 47 42 3 17 35 40 42 45 45 48 47 40 41 48 58 53 48 46 53 53 51 53 53 52 55 52 51 54 52
347 349 339 356 57 38 8 352 58 255 347 336 6 17 33 39 46 41 39 40 39 42 40 44 53 49 40 39 52 58 53 47 50 54 54 52 53 54 51 54 52 50 50 48
37 23 357 51 133 30 14 61 3 65 59 330 19 31 57 68 63 59 56 51 50 50 49 45 52 55 41 36 42 58 45 47 56 60 54 49 48 51 53 51 50 50 47 45
319 262 94 102 242 93 271 278 39 61 90 57 57 67 70 79 69 66 63 55 51 47 47 44 53 54 48 36 41 44 40 47 60 62 56 49 48 45 39 52 46 44 41 39
218 14 129 70 97 122 230 150 148 92 98 88 66 77 89 93 77 77 74 65 60 57 49 47 55 55 47 36 40 29 22 36 63 60 54 49 49 42 37 35 41 48 36 38
179 183 165 210 170 147 131 156 145 131 112 112 119 96 88 104 102 98 85 75 73 63 49 53 52 54 41 42 41 27 17 27 62 64 50 41 43 39 40 31 24 29 32 34